Regional Weather Roundup
Issued by NWS

Home | Current Version | Previous Version | Text Only | Print | Product List | Glossary Off
Versions: 1 2 3 4 5 6 7 8 9 10 11 12 13 14 15 16 17 18 19 20 21 22 23 24 25 26 27 28 29 30 31 32 33 34 35 36 37 38 39 40 41 42 43 44 45 46 47 48 49 50

000
ASUS43 KLOT 261421
RWRIL

ILLINOIS REGIONAL WEATHER ROUNDUP
NATIONAL WEATHER SERVICE CHICAGO/ROMEOVILLE IL
900 AM CDT TUE MAY 26 2015

NOTE: "FAIR" INDICATES FEW OR NO CLOUDS BELOW 12,000 FEET WITH NO
SIGNIFICANT WEATHER AND/OR OBSTRUCTIONS TO VISIBILITY.

* THESE STATIONS ARE NOT UNDER NWS QUALITY CONTROL. THEY ALSO MAY NOT
  REPORT WEATHER SUCH AS PRECIPITATION OR FOG.

ILZ001-002-007-009-015-016-024-261500-
NORTHWEST ILLINOIS

CITY           SKY/WX    TMP DP  RH WIND       PRES   REMARKS
MOLINE         LGT RAIN  70  66  87 SE13G23   29.76F
STERLING*      CLOUDY    72  66  83 SE10G18   29.80F
SAVANNA*       CLOUDY    70  66  88 SE9       29.80F
$$

ILZ003-004-008-010-011-017-018-261500-
NORTH CENTRAL ILLINOIS

CITY           SKY/WX    TMP DP  RH WIND       PRES   REMARKS
ROCKFORD       CLOUDY    70  64  81 SE8       29.86F
FREEPORT*      CLOUDY    68  65  89 SE16      29.85F
ROCHELLE*      CLOUDY    68  66  92 SE17G23   29.86F
DE KALB*       CLOUDY    66  64  93 SE15      29.88F FOG
PERU*          CLOUDY    72  67  84 SE22      29.85F
$$

ILZ005-006-012>014-019>023-261500-
NORTHEAST ILLINOIS

CITY           SKY/WX    TMP DP  RH WIND       PRES   REMARKS
CHICAGO-OHARE  CLOUDY    69  64  84 S9        29.91F
CHICAGO-MIDWAY CLOUDY    73  66  78 S10G17    29.92F
AURORA         CLOUDY    70  64  81 SE13      29.90F HAZE
LANSING*       CLOUDY    71  64  78 S13       29.94F
JOLIET*        CLOUDY    72  67  86 SE5       29.91F
WAUKEGAN       CLOUDY    65  61  87 SE6       29.91F
DUPAGE AIRPORT CLOUDY    69  64  84 SE13      29.90F
KANKAKEE*      CLOUDY    71  66  85 SE13      29.93F
WHEELING       CLOUDY    70  64  81 S12       29.93F
MORRIS*        CLOUDY    71  66  84 SE14G22   29.88F
ROMEOVILLE*    CLOUDY    70  65  85 SE10      29.91F
NORTHERLY ISL    N/A     70  63  78 S12         N/A
$$

LMZ740>746-261500-
SOUTHERN LAKE MICHIGAN

STATION/POSITION SKY/WX   TEMP    WIND        PRES    VSBY  WAVE
                          AIR SEA DIR/SP/G                  HT/PER
                          (F)     (DEG/KT/KT) (MB)    (MI)  (FT/S)
SOUTHERN BUOY              49 38  170/ 14/ 16 1014.8F         1/ 3
HARRISON CRIB              64     130/ 16/ 17   N/A
BURNHAM HARBOR             69     160/  8/ 12   N/A
CALUMET HARBOR             70     150/  7/ 12   N/A
BURNS HARBOR               70     180/ 10/ 18 1015.2S
MICHIGAN CITY              70     140/ 13/ 17   N/A
MICHIGAN CITY 6N           64 52  180/ 10/ 12   N/A           1
ST. JOSEPH                 63 55  170/  8/  8   N/A           1/ 3
$$

ILZ025>027-034>036-040-047-049-050-058-095>099-261500-
WEST-CENTRAL ILLINOIS

CITY           SKY/WX    TMP DP  RH WIND       PRES   REMARKS
QUINCY         PTSUNNY   67  63  87 S18       29.79F
GALESBURG*     RAIN      68  67  94 SE6       29.77F
MACOMB*        CLOUDY    64  64  97 SE10      29.83R
JACKSONVILLE*  LGT RAIN  68  66  93 S10       29.85R
PITTSFIELD*    PTSUNNY   68  63  84 S9        29.83F
$$

ILZ028>032-037-038-041>044-048-051>054-059>061-261500-
CENTRAL ILLINOIS

CITY           SKY/WX    TMP DP  RH WIND       PRES   REMARKS
PONTIAC        CLOUDY    73  68  87 SE18      29.89F
BLOOMINGTON    CLOUDY    70  69  96 SE20G26   29.87F
DECATUR        CLOUDY    72  67  84 S18       29.88S
PEORIA         CLOUDY    72  67  84 SE16G22   29.82S
LACON*         CLOUDY    70  66  87 SE14G22   29.83F
LINCOLN*       CLOUDY    73  67  83 S21G29    29.83S
SPRINGFIELD    HVY RAIN  72  67  84 SW26G36   29.86R
TAYLORVILLE    CLOUDY    70  66  88 SE20      29.86F
$$

ILZ033-039-045-046-055>057-062-063-261500-
EAST-CENTRAL ILLINOIS

CITY           SKY/WX    TMP DP  RH WIND       PRES   REMARKS
CHAMPAIGN      CLOUDY    71  66  84 SE20      29.91F
DANVILLE*      CLOUDY    70  66  88 S13       29.92F
RANTOUL*       CLOUDY    72  68  87 S14G23    29.91F
MATTOON        CLOUDY    71  66  84 S18G25    29.90F
PARIS*         CLOUDY    72  66  82 SE14      29.95F
$$

ILZ079-100>102-261500-
SOUTHWEST ILLINOIS

CITY           SKY/WX    TMP DP  RH WIND       PRES   REMARKS
ALTON          PTSUNNY   68  68 100 SW14      29.88R
BELLEVILLE     CLOUDY    68  68 100 S17G26    29.87S
CAHOKIA*       CLOUDY    74  65  73 SW12G21   29.88R
SPARTA*        RAIN      71  68  88 S20G25    29.92R
$$

ILZ064>066-069>071-074>076-080>082-084>086-088>090-092>094-261500-
SOUTH-CENTRAL ILLINOIS

CITY           SKY/WX    TMP DP  RH WIND       PRES   REMARKS
CARBONDALE     CLOUDY    73  66  78 S14       29.93R
CAIRO*         CLOUDY    72  67  86 S12G20    29.97R
EFFINGHAM*     CLOUDY    71  64  79 SE13G18   29.93R
MT. VERNON     CLOUDY    72  64  78 S15       29.94S
CENTRALIA*     CLOUDY    72  65  77 S17G23    29.91S
SALEM*         RAIN      73  66  80 S12G21    29.92R
METROPOLIS*    CLOUDY    73  69  89 S14G22    29.98R
$$

ILZ067-068-072-073-078-083-087-091-261500-
SOUTHEAST ILLINOIS

CITY           SKY/WX    TMP DP  RH WIND       PRES   REMARKS
LAWRENCEVILLE  PTSUNNY   74  65  73 S17G29    29.96F
FLORA*         PTSUNNY   70  65  83 S16G22    29.94R
FAIRFIELD*     CLOUDY    72  66  83 S14G23    29.94R
HARRISBURG*    CLOUDY    73  67  83 S18G25    29.97R
ROBINSON*      PTSUNNY   73  65  77 S14G20    29.96F
CARMI*         CLOUDY    73  63  68 S10       29.95R
$$

ABBREVIATIONS USED IN REMARKS
   TC - TEMPERATURE IN CELSIUS
  WCI - WIND CHILL INDEX
   HX - HEAT INDEX
  VSB - VISIBILITY
$$



USA.gov is the U.S. government's official web portal to all federal, state and local government web resources and services.